Location: Gombori
(14.9797°N, 2.9419°W)
Time: 23:53:08
(UTC+00:00)

Cosmos 2150 Rocket - Pass Details

Date: 29 July 2021
Orbit: 748 x 808 km, 74.0° (Epoch: 20 September)

Event Time Altitude Azimuth Distance (km) Brightness Sun altitude
Rises 19:26:44 0° 356° (N) 3,305 7.7 -10.8°
Reaches altitude 10° 19:29:13 10° 2° (N) 2,379 6.8 -11.3°
Maximum altitude 19:34:26 47° 76° (ENE) 1,063 4.4 -12.5°
Enters shadow 19:38:56 14° 146° (SE) 2,133 5.8 -13.5°
